C/2019 J1 ( Lemmon )

Japanese version
Home page
Updated on July 9, 2019

---------------------------------------------------------------------

* Profile

Discovery Date May 4, 2019
Magnitude 17.4 mag
Discoverer R. A. Kowalski and D. Rankin (Mount Lemmon)

* Pictures

* Orbital Elements

Epoch 2019 Apr. 27.0 TT = JDT 2458600.5
T 2019 Apr. 8.79749 TT                                  MPCW
q   2.4795395            (2000.0)            P               Q
z  +0.0109734      Peri.  167.59010     -0.05585132     +0.90985860
 +/-0.0031502      Node    98.10491     -0.94788364     +0.08105289
e   0.9727910      Incl.   24.53760     -0.31368334     -0.40692476
From 74 observations 2019 May 4-12, mean residual 0".5.

* Magnitudes Graph

        m1 = 12.5 + 5 log d + 10.0 log r

---------------------------------------------------------------------

The orbital elements are published on M.P.E.C. 2019-J142.
The magnitudes graphs are made with Comet for Windows.

---------------------------------------------------------------------

Copyright(C) Seiichi Yoshida (comet@aerith.net). All rights reserved.